Weather History for Pine Bluff, AR

Change the Weather History Date:

Wednesday, April 9, 2014

  Actual Average Record
Temperature  
Mean Temperature 54 °F 61 °F  
Max Temperature 70 °F 73 °F 91 °F (1903)
Min Temperature 37 °F 50 °F 31 °F (1909)
Degree Days  
Heating Degree Days 11 6  
Month to date heating degree days 73 58  
Since 1 July heating degree days 3326 2793  
Cooling Degree Days 0 2  
Month to date cooling degree days 14 12  
Year to date cooling degree days 14 32  
Growing Degree Days 4 (Base 50)    
Moisture  
Dew Point 37 °F    
Average Humidity 56    
Maximum Humidity 85    
Minimum Humidity 26    
Precipitation  
Precipitation 0.00 in 0.17 in 3.13 in (2008)
Month to date precipitation 1.59 1.48  
Year to date precipitation 11.48 14.70  
Snow  
Snow 0.00 in 0.00 in - ()
Month to date snowfall 0.0 0.0  
Since 1 July snowfall 3.7 3.1  
Snow Depth 0.00 in    
Sea Level Pressure  
Sea Level Pressure 30.16 in    
Wind  
Wind Speed 5 mph (WSW)    
Max Wind Speed 13 mph    
Max Gust Speed 17 mph    
Visibility 10 miles    
Events      
T = Trace of Precipitation, MM = Missing Value Source: NWS Daily Summary

Daily Weather History Graph

Daily Weather History Graph

Search for Another Location

Airport:

Trip Planner

Search our weather history database for the weather conditions in past years. The results will help you decide how hot, cold, wet, or windy it might be!

Date:

Astronomy

Apr. 09, 2014 Rise Set
Actual Time 6:44 AM CDT 7:34 PM CDT
Civil Twilight 6:18 AM CDT 8:00 PM CDT
Nautical Twilight 5:48 AM CDT 8:30 PM CDT
Astronomical Twilight 5:17 AM CDT 9:01 PM CDT
Moon 2:36 PM CDT (4/9) 3:19 AM CDT (4/9)
Length of Visible Light 13h 41m
Length of Day
12h 50m
Waxing Gibbous, 72% of the Moon is Illuminated
Apr 9
Waxing Gibbous
Apr 15
Full
Apr 22
Last Quarter
Apr 29
New
May 6
First Quarter

Hourly Weather History & Observations

Time (CDT) Temp. Windchill Dew Point Humidity Pressure Visibility Wind Dir Wind Speed Gust Speed Precip Events Conditions
12:53 AM 46.0 °F 43.9 °F 37.9 °F 73% 30.12 in 10.0 mi West 4.6 mph - N/A   Clear
1:53 AM 44.1 °F 42.5 °F 37.9 °F 79% 30.12 in 10.0 mi West 3.5 mph - N/A   Clear
2:53 AM 44.1 °F 40.8 °F 37.0 °F 76% 30.12 in 10.0 mi West 5.8 mph - N/A   Clear
3:53 AM 43.0 °F 39.5 °F 36.0 °F 76% 30.13 in 10.0 mi West 5.8 mph - N/A   Clear
4:53 AM 41.0 °F 39.0 °F 36.0 °F 82% 30.14 in 10.0 mi WNW 3.5 mph - N/A   Clear
5:53 AM 41.0 °F - 36.0 °F 82% 30.15 in 10.0 mi Calm Calm - N/A   Clear
6:53 AM 39.0 °F - 36.0 °F 89% 30.17 in 10.0 mi Calm Calm - N/A   Clear
7:53 AM 44.1 °F 42.5 °F 37.9 °F 79% 30.21 in 10.0 mi West 3.5 mph - N/A   Clear
8:53 AM 50.0 °F - 39.0 °F 66% 30.23 in 10.0 mi West 6.9 mph - N/A   Clear
9:53 AM 55.0 °F - 39.0 °F 55% 30.24 in 10.0 mi WNW 4.6 mph - N/A   Clear
10:53 AM 59.0 °F - 37.0 °F 44% 30.25 in 10.0 mi NW 4.6 mph - N/A   Clear
11:45 AM 60.8 °F - 33.8 °F 36% 30.25 in 10.0 mi WNW 4.6 mph - N/A   Partly Cloudy
11:53 AM 62.1 °F - 37.0 °F 39% 30.25 in 10.0 mi SSW 3.5 mph - N/A   Partly Cloudy
12:53 PM 64.0 °F - 36.0 °F 35% 30.22 in 10.0 mi Variable 3.5 mph - N/A   Clear
1:53 PM 64.9 °F - 34.0 °F 32% 30.20 in 10.0 mi WNW 4.6 mph - N/A   Clear
2:53 PM 68.0 °F - 34.0 °F 28% 30.18 in 10.0 mi Calm Calm - N/A   Clear
3:28 PM 68.0 °F - 33.8 °F 28% 30.16 in 10.0 mi Calm Calm - N/A   Partly Cloudy
3:53 PM 69.1 °F - 34.0 °F 27% 30.14 in 10.0 mi SSW 9.2 mph - N/A   Clear
4:53 PM 70.0 °F - 34.0 °F 27% 30.12 in 10.0 mi WSW 8.1 mph - N/A   Clear
5:53 PM 69.1 °F - 34.0 °F 27% 30.11 in 10.0 mi SSW 6.9 mph - N/A   Clear
6:53 PM 66.9 °F - 36.0 °F 32% 30.10 in 10.0 mi SSW 8.1 mph - N/A   Clear
7:53 PM 61.0 °F - 41.0 °F 48% 30.09 in 10.0 mi South 5.8 mph - N/A   Clear
8:53 PM 55.9 °F - 43.0 °F 62% 30.10 in 10.0 mi South 5.8 mph - N/A   Clear
9:53 PM 54.0 °F - 42.1 °F 64% 30.12 in 10.0 mi South 8.1 mph - N/A   Clear
10:53 PM 54.0 °F - 41.0 °F 62% 30.12 in 10.0 mi South 9.2 mph - N/A   Clear
11:53 PM 52.0 °F - 39.9 °F 63% 30.12 in 10.0 mi South 8.1 mph - N/A   Clear